This is the latest recevied weather packets stored in our database for station/object N3SBK. If no packets are shown the sender has not sent any weather packets the latest 10 day(s).
| Time | Temp. | Humidity | Pressure | Rain* | Wind** | Luminosity | Snow |
|---|---|---|---|---|---|---|---|
| 1787693759 | 25° C | 59% | 1010 hPa | 0 mm | - | 66 W/m² | - |
| 1787693455 | 25° C | 60% | 1010.3 hPa | 0 mm | - | 178 W/m² | - |
| 1787693151 | 24.44° C | 62% | 1010.4 hPa | 0 mm | - | 249 W/m² | - |
| 1787692847 | 24.44° C | 63% | 1010.3 hPa | 0 mm | - | 256 W/m² | - |
| 1787692542 | 24.44° C | 64% | 1010 hPa | 0 mm | - | 269 W/m² | - |
| 1787692241 | 24.44° C | 62% | 1010.1 hPa | 0 mm | - | 289 W/m² | - |
| 1787691936 | 23.89° C | 63% | 1010.3 hPa | 0 mm | - | 68 W/m² | - |
| 1787691635 | 23.89° C | 64% | 1010 hPa | 0 mm | - | 128 W/m² | - |
| 1787691333 | 23.33° C | 66% | 1010 hPa | 0 mm | - | 112 W/m² | - |
| 1787691028 | 23.89° C | 63% | 1010 hPa | 0 mm | - | 137 W/m² | - |
| 1787690723 | 25° C | 60% | 1010 hPa | 0 mm | - | 199 W/m² | - |
| 1787690418 | 26.11° C | 58% | 1009.9 hPa | 0 mm | - | 282 W/m² | - |
| 1787690114 | 25° C | 61% | 1010 hPa | 0 mm | - | 324 W/m² | - |
| 1787689810 | 25° C | 64% | 1010 hPa | 0 mm | - | 429 W/m² | - |
| 1787689506 | 24.44° C | 62% | 1009.9 hPa | 0 mm | - | 432 W/m² | - |
| 1787689206 | 24.44° C | 60% | 1009.9 hPa | 0 mm | - | 162 W/m² | - |
| 1787688901 | 24.44° C | 62% | 1009.9 hPa | 0 mm | - | 178 W/m² | - |
| 1787688597 | 25.56° C | 58% | 1009.9 hPa | 0 mm | - | 114 W/m² | - |
| 1787688297 | 25.56° C | 60% | 1009.9 hPa | 0 mm | - | 513 W/m² | - |
| 1787687992 | 24.44° C | 63% | 1009.9 hPa | 0 mm | - | 556 W/m² | - |
| 1787687687 | 25° C | 67% | 1010 hPa | 0 mm | - | 548 W/m² | - |
| 1787687383 | 25° C | 61% | 1010.3 hPa | 0 mm | - | 140 W/m² | - |
| 1787687078 | 25° C | 62% | 1010.3 hPa | 0 mm | - | 512 W/m² | - |
| 1787686774 | 25.56° C | 63% | 1010.3 hPa | 0 mm | - | 518 W/m² | - |
| 1787686470 | 25° C | 60% | 1010.3 hPa | 0 mm | - | 532 W/m² | - |
* Rain latest hour (hover to see other rain measurements)
** Current wind speed in m/s (hover to see current wind gust speed)